Location: Berbisdorf
(50.7638°N, 12.9442°E)
Time: 23:10:26
(UTC+00:00)

BREEZE-M DEB (TANK) - Visible Passes

Search period start: 01 October 2020 00:00
Search period end: 11 October 2020 00:00
Orbit: 333 x 12042 km, 49.7° (Epoch: 01 October)

Date Brightness Start Highest point End Pass type
(mag) Time Alt. Az. Time Alt. Az. Time Alt. Az.
01 Oct 9.5 00:16:45 10° ESE 00:45:46 14° E 01:06:57 10° ENE visible
01 Oct 8.6 03:26:18 10° S 04:55:44 59° SE 05:27:27 10° ENE visible
02 Oct 8.7 02:46:34 10° S 04:12:59 53° SE 04:47:08 10° ENE visible
03 Oct 8.9 02:08:08 10° S 03:30:34 47° ESE 04:06:36 10° ENE visible
04 Oct 9.0 01:31:10 10° SSE 02:48:38 41° ESE 03:25:46 10° ENE visible
05 Oct 9.1 00:55:57 10° SSE 02:07:16 35° ESE 02:44:31 10° ENE visible
05 Oct 8.0 04:53:26 10° SW 06:28:08 78° SSE 06:52:52 10° ENE visible
06 Oct 9.2 00:22:55 10° SE 01:26:32 29° E 02:02:38 10° ENE visible
06 Oct 8.2 04:09:46 10° SSW 05:44:54 74° SE 06:12:55 10° ENE visible
06 Oct 9.2 23:52:44 10° SE 00:46:28 23° E 01:19:46 10° ENE visible
07 Oct 8.4 03:27:22 10° SSW 05:01:31 69° SE 05:32:51 10° ENE visible
07 Oct 9.3 23:26:38 10° ESE 00:07:07 17° E 00:35:03 10° ENE visible
08 Oct 8.5 02:46:09 10° SSW 04:18:10 63° SE 04:52:38 10° ENE visible
08 Oct 9.4 23:08:21 10° E 23:28:28 12° E 23:44:56 10° ENE visible
09 Oct 8.6 02:06:05 10° S 03:35:01 57° SE 04:12:16 10° ENE visible
10 Oct 8.7 01:27:11 10° S 02:52:17 51° ESE 03:31:40 10° ENE visible
